Regional Weather Roundup
Issued by NWS

Home | Current Version | Previous Version | Graphics & Text | Print | Product List | Glossary On
Versions: 1 2 3 4 5 6 7 8 9 10 11 12 13 14 15 16 17 18 19 20 21 22 23 24 25 26 27 28 29 30 31 32 33 34 35 36 37 38 39 40 41 42 43 44 45 46 47 48 49 50
000
ASUS43 KLSX 201459
RWRMO

WEATHER SUMMARY FOR MISSOURI
NATIONAL WEATHER SERVICE SPRINGFIELD MO
900 AM CST THU NOV 20 2014

NOTE: "FAIR" INDICATES FEW OR NO CLOUDS BELOW 12,000 FEET WITH NO
       SIGNIFICANT WEATHER AND/OR OBSTRUCTIONS TO VISIBILITY.
       CURRENT SKY AND/OR WEATHER CONDITIONS ARE NOT AVAILABLE FOR
       CHILLICOTHE AND FARMINGTON.

MOZ001>031-035>038-043-044-053-054-201600-
...NORTHERN AND WESTERN MISSOURI...

CITY           SKY/WX    TMP DP  RH WIND       PRES   REMARKS
KANSAS CTY INT MOSUNNY   26  18  71 N6        30.24R WCI  19
KANSAS C DTWN  SUNNY     26  19  74 CALM      30.26R
LEE`S SUMMIT   SUNNY     27  18  69 N3        30.25R
ST JOSEPH      SUNNY     20  17  88 S5        30.27R WCI  13
CHILLICOTHE      N/A     24  16  71 NW7       30.27R WCI  16
KIRKSVILLE     SUNNY     25  16  68 W6        30.23R WCI  18

$$
MOZ066>068-077>081-088>096-101>105-201600-
...SOUTHWEST MISSOURI...

CITY           SKY/WX    TMP DP  RH WIND       PRES   REMARKS
SPRINGFIELD    SUNNY     33  22  63 S7        30.22R WCI  27
JOPLIN         SUNNY     35  22  58 E7        30.23R WCI  29

$$
MOZ032>034-039>042-045>050-055>058-069>072-201600-
...CENTRAL MISSOURI...

CITY           SKY/WX    TMP DP  RH WIND       PRES   REMARKS
COLUMBIA       SUNNY     27  19  72 W9        30.24R WCI  18
JEFFERSON CITY SUNNY     26  20  77 CALM      30.27R
ROLLA          SUNNY     27  19  72 SW6       30.22R WCI  20
SEDALIA        SUNNY     29  18  63 CALM      30.25R
WARRENSBURG    SUNNY     27  19  74 CALM      30.26R
OSAGE BEACH    SUNNY     27  18  69 CALM      30.25R

$$
MOZ051-052-059>065-201600-
...EAST CENTRAL MISSOURI...

CITY           SKY/WX    TMP DP  RH WIND       PRES   REMARKS
ST LOUIS INTL  PTSUNNY   28  18  66 W8        30.27R WCI  20
SPIRIT OF STL  SUNNY     26  18  71 SW7       30.27R WCI  18
ST CHARLES     CLOUDY    25  19  78 CALM      30.27R

$$
MOZ072>076-082>087-097>100-106>115-201600-
...SOUTH CENTRAL AND SOUTHEAST MISSOURI...

CITY           SKY/WX    TMP DP  RH WIND       PRES   REMARKS
CAPE GIRARDEAU SUNNY     30  20  66 NW7       30.30R WCI  23
FARMINGTON     SUNNY     27  19  74 SW5       30.26R WCI  21
POPLAR BLUFF   SUNNY     33  22  63 N5        30.29R WCI  29
WEST PLAINS    SUNNY     35  19  52 N3        30.23S

$$



USA.gov is the U.S. government's official web portal to all federal, state and local government web resources and services.